Regional Weather Roundup
Issued by NWS

Home | Current Version | Previous Version | Graphics & Text | Print | Product List | Glossary On
Versions: 1 2 3 4 5 6 7 8 9 10 11 12 13 14 15 16 17 18 19 20 21 22 23 24 25 26 27 28 29 30 31 32 33 34 35 36 37 38 39 40 41 42 43 44 45 46 47 48 49 50
000
ASUS45 KCYS 210510
RWRWY

WYOMING REGIONAL WEATHER ROUNDUP
NATIONAL WEATHER SERVICE CHEYENNE WY
1100 PM MDT MON APR 20 2015

NOTE:  "FAIR" INDICATES FEW OR NO CLOUDS BELOW 12,000 FEET
WITH NO SIGNIFICANT WEATHER AND/OR OBSTRUCTIONS TO VISIBILITY.

WYZ001-210600-
YELLOWSTONE NATIONAL PARK

CITY           SKY/WX    TMP DP  RH WIND       PRES   REMARKS
LK YELLOWSTONE   N/A     28  22  78 NW3       29.99F
W YELLOWSTONE  NOT AVBL

$$
WYZ002>013-054>058-071-098>099-210600-
NORTHERN WYOMING

CITY           SKY/WX    TMP DP  RH WIND       PRES   REMARKS
JACKSON        FAIR      37  25  60 CALM      29.94S
CODY           MOCLDY    45  27  49 CALM      29.89S
GREYBULL       FAIR      44  19  36 CALM      29.86S
WORLAND        FAIR      43  22  43 S12       29.87F
SHERIDAN       FAIR      33  24  69 CALM      29.88S
BUFFALO        FAIR      37  22  54 W7        29.90F WCI  32
GILLETTE       FAIR      26  19  74 SW5       29.89S WCI  20
HULETT         FAIR      36  19  51 SE6       29.90F WCI  31
NEWCASTLE      FAIR      36  19  51 CALM      29.90S

$$
WYZ014>020-022>026-101>103-210600-
CENTRAL WYOMING

CITY           SKY/WX    TMP DP  RH WIND       PRES   REMARKS
BIG PINEY      FAIR      34  17  50 N13       29.97S WCI  25
PINEDALE       FAIR      32  19  59 NW7       29.97S WCI  26
DUBOIS         FAIR      36  19  51 S6        29.95S WCI  31
LANDER         FAIR      42  25  50 E3        29.91F
RIVERTON       FAIR      44  21  40 S6        29.93S
CASPER         FAIR      31  23  72 CALM      29.93S
DOUGLAS        FAIR      35  25  66 W8        29.93R WCI  29

$$
WYZ021-027>030-104>119-210600-
SOUTHERN WYOMING

CITY           SKY/WX    TMP DP  RH WIND       PRES   REMARKS
EVANSTON       FAIR      43  22  43 SW6       29.99S
KEMMERER       FAIR      41  19  42 NW13      29.99S
FORT BRIDGER   CLEAR     45  25  45 W7        30.01S
ROCK SPRINGS   MOCLDY    39  25  57 NE10      29.96R WCI  32
DIXON          FAIR      37  29  72 NE5       29.99R WCI  34
RAWLINS        FAIR      31  25  78 CALM      29.97S
SARATOGA       FAIR      30  27  86 CALM      29.98S
LARAMIE        FAIR      24  21  88 S7        29.97S WCI  16
CHEYENNE       FAIR      34  25  69 W9        29.95F WCI  27
TORRINGTON     FAIR      41  24  51 W6        29.91R
PINE BLUFFS    FAIR      32  28  86 W5        29.94S WCI  27

$$


USA.gov is the U.S. government's official web portal to all federal, state and local government web resources and services.